CFG6EL LGKR-EDDF

Flight info

Callsign CFG6EL
Flight time N/A
Altitude 32000
Route OLGAT DCT CRAYE/N0450F340 DCT GISAM DCT DARZA/N0446F360 DCT SIMBA DCT AKINI T161 DEBHI DEBHI1B
Aircraft A321/M-SDE3FGHIRWY/LB1

Departure

Time 2026-05-04 16:57
Airport Corfu Ioannis Kapodistrias International Airport (LGKR)

Arrival

Time N/A
Airport Frankfurt Main Airport (EDDF)
Time Latitude Longitude Altitude Speed Heading
2026-05-04 16:24 39.60705 19.91346 19 ft 0 kts 79°
2026-05-04 16:48 39.60699 19.91307 21 ft 4 kts 79°
2026-05-04 16:48 39.60694 19.91273 22 ft 4 kts 79°
2026-05-04 16:49 39.60699 19.91220 20 ft 4 kts 155°
2026-05-04 16:49 39.60738 19.91207 19 ft 0 kts 169°
2026-05-04 16:52 39.60709 19.91214 22 ft 7 kts 169°
2026-05-04 16:52 39.60644 19.91231 18 ft 10 kts 170°
2026-05-04 16:53 39.60530 19.91164 18 ft 13 kts 202°
2026-05-04 16:53 39.60124 19.91230 21 ft 20 kts 169°
2026-05-04 16:54 39.59991 19.91265 21 ft 19 kts 169°
2026-05-04 16:55 39.59391 19.91421 17 ft 18 kts 168°
2026-05-04 16:55 39.59208 19.91457 17 ft 10 kts 200°
2026-05-04 16:56 39.59150 19.91479 17 ft 2 kts 41°
2026-05-04 16:56 39.60058 19.91248 23 ft 131 kts 349°
2026-05-04 16:57 39.61123 19.90981 69 ft 174 kts 347°
2026-05-04 16:57 39.63480 19.90400 1406 ft 177 kts 347°
2026-05-04 16:58 39.65821 19.86706 2368 ft 218 kts 268°
2026-05-04 16:58 39.65742 19.84734 3003 ft 219 kts 269°
2026-05-04 16:59 39.65701 19.80758 4203 ft 223 kts 277°
2026-05-04 17:00 39.69263 19.74408 5894 ft 268 kts 316°
2026-05-04 17:00 39.73638 19.68590 8440 ft 273 kts 316°
2026-05-04 17:01 39.76298 19.65029 9928 ft 276 kts 316°
2026-05-04 17:01 39.78615 19.61931 10533 ft 301 kts 316°
2026-05-04 17:02 39.81709 19.57802 11005 ft 334 kts 316°
2026-05-04 17:02 39.84980 19.53412 12262 ft 340 kts 316°
2026-05-04 17:03 39.86631 19.51191 12938 ft 342 kts 316°
2026-05-04 17:03 39.88292 19.48956 13606 ft 345 kts 316°
2026-05-04 17:03 39.91651 19.44432 14754 ft 350 kts 316°
2026-05-04 17:04 39.95074 19.39830 15878 ft 356 kts 316°
2026-05-04 17:04 39.98540 19.35176 16995 ft 360 kts 316°
2026-05-04 17:05 40.02048 19.30442 18102 ft 365 kts 316°
2026-05-04 17:05 40.05592 19.25650 19061 ft 369 kts 316°
2026-05-04 17:06 40.09156 19.20823 19971 ft 373 kts 316°
2026-05-04 17:06 40.10959 19.18380 20422 ft 375 kts 316°
2026-05-04 17:07 40.14597 19.13449 21321 ft 379 kts 316°
2026-05-04 17:07 40.15809 19.11804 21604 ft 380 kts 315°
2026-05-04 17:07 40.18275 19.08451 22111 ft 385 kts 315°
2026-05-04 17:07 40.20134 19.05918 22522 ft 387 kts 315°
2026-05-04 17:08 40.22006 19.03367 22950 ft 389 kts 315°
2026-05-04 17:08 40.26170 18.98855 23772 ft 391 kts 331°
2026-05-04 17:08 40.28592 18.97206 24122 ft 393 kts 333°
2026-05-04 17:09 40.31024 18.95569 24483 ft 394 kts 333°
2026-05-04 17:09 40.33463 18.93918 24840 ft 395 kts 333°
2026-05-04 17:09 40.35874 18.92277 25193 ft 396 kts 332°
2026-05-04 17:10 40.40782 18.88933 25894 ft 399 kts 332°
2026-05-04 17:10 40.48208 18.83865 26882 ft 403 kts 332°
2026-05-04 17:11 40.50704 18.82156 27213 ft 405 kts 332°
2026-05-04 17:11 40.53207 18.80442 27534 ft 406 kts 332°
2026-05-04 17:11 40.58230 18.77000 28123 ft 409 kts 332°
2026-05-04 17:12 40.60760 18.75268 28397 ft 411 kts 332°
2026-05-04 17:12 40.65852 18.71779 28976 ft 414 kts 332°
2026-05-04 17:13 40.73551 18.66479 29821 ft 418 kts 332°
2026-05-04 17:14 40.81243 18.61179 30890 ft 414 kts 332°
2026-05-04 17:14 40.83760 18.59443 31210 ft 413 kts 331°
2026-05-04 17:14 40.88843 18.55923 31862 ft 412 kts 331°
2026-05-04 17:15 40.91383 18.54158 32076 ft 412 kts 331°
2026-05-04 17:15 40.96380 18.50691 32118 ft 401 kts 331°
2026-05-04 17:16 41.01304 18.47269 32119 ft 399 kts 331°
2026-05-04 17:17 41.11148 18.40410 32121 ft 401 kts 331°
2026-05-04 17:18 41.21011 18.33525 32119 ft 402 kts 331°
2026-05-04 17:19 41.30896 18.26595 32118 ft 402 kts 331°
2026-05-04 17:20 41.40778 18.19639 32115 ft 402 kts 331°
2026-05-04 17:20 41.48198 18.14400 32120 ft 402 kts 331°